Back to catalog

USA 141

AliveMilitaryPO
NORAD 25615·PAYLOAD·🇺🇸 United States

Launched Oct 3, 1998 from Vandenberg Space Force Base

Loading…

Next Passes (next 24 hours)

TLE

FreshSource: Space-Track

Epoch: Sep 14, 2026, 14:09 UTC

1 25615U 98055C   26257.59012136  .00000223  00000-0  55446-4 0  9990
2 25615  84.9859 314.8131 0005644 278.7926  81.2636 14.47288471386969

Track USA 141 in real time with AllMySat

Download on the App Store